Showing default

O3B FM10, 40348

Orbit data source: Space-Track

O3B FM10, 40348 is a payload satellite owned by O3B (JE) that was launched on Thu, 18 Dec 2014 UTC via a SOYUZ-ST-B launch vehicle from the French Guiana (FRGUI). Payload-class satellites include a variety of spacecraft equipped with specific instruments for various scientific and technological missions. These include communications satellites like Starlink; space stations such as the ISS; scientific satellites like the Hubble; Earth observation satellites from companies like Planet Labs, Umbra, and HawkEye 360; GPS; miniature CubeSats for education and research; and military/defense satellites.

Loading next visibility...
Identifier
40348, 2014-083A
Orbit
Active
Country
Flag of UnknownUnknown / O3B
Related business
Manufacturer
Thales Alenia
Mission
Operational Commercial Communications
Bus & Motor
PRISMA?, LS-400 AOCS?
Mass
700 kg wet, ~500 kg dry
Launch date (UTC)
2014-12-18 (12 years ago)
Launch vehicle
SOYUZ-ST-B
Launch site
French Guiana (FRGUI)
Object type
Payload
Rocket body
Debris
Shape & HBR
Trap Box + 2 Pan, 6.0 m
Radar Cross Section
21.980 m², Large (>1 m²)

Expand to show TLE details & history
Last TLE update: 16 hours ago

TLE from 16 hours ago
0 O3B FM10
1 40348U 14083A   26266.90530290 -.00000019  00000-0  00000-0 0  9996
2 40348   0.0486 344.8990 0002675 196.6325 178.4712  5.00115781214834
Epoch: 2026-09-23T21:43Z
TLE epoch observation values (Epoch: 2026-09-23T21:43:38.170Z)
Latitude
0.01185°
Longitude
31.34114°
Altitude
8,068.23 km
Speed
5.253 km/s
True Right ascension
23h 59m 59s
True Declination
0° 00' 43"
Sunlit
Object was in full shadow at epoch
Visualization orbit readout
Latitude
Unknown
Longitude
Unknown
Altitude
Unknown
Speed
Unknown
Apparent Right ascension
Unknown
Apparent Declination
Unknown
Sunlit
N/A
Visualization observer readout
Local Sidereal Time
06:59:07
Azimuth
Unknown
Elevation
Unknown
Doppler factor
Unknown
Orbital elements
Apogee altitude
8,072.808 km
Perigee altitude
8,065.079 km
Semi-major axis
14,447.08 km
Eccentricity
0.00027
Inclination
0.0486°
RAAN
344.899°
Arg. of periapsis
196.6325°
True anomaly
178.47202°
Mean anomaly
178.4712°
Eccentric anomaly
178.47161°
Mean motion
1.24989 °/min
Orbital period
288.02 mins
BSTAR
0
Loading maneuver chart data...
Computing Atmospheric mass density...
Loading historical data...
Loading historical data...
Loading historical data...
Loading historical data...
Loading historical data...
Loading historical data...
Loading historical data...
Other satellites on launch #83 in the year 2014 (2014-12-18 UTC)

Documentation

Showing up to 5 results
|